Location: Newark
(34.9500°N, 139.9667°E)
Time: 05:04:36
(UTC+00:00)

Transit 2A - Visible Passes

Search period start: 15 December 2019 00:00
Search period end: 25 December 2019 00:00
Orbit: 602 x 957 km, 66.7° (Epoch: 14 December)

Date Brightness Start Highest point End Pass type
(mag) Time Alt. Az. Time Alt. Az. Time Alt. Az.
15 Dec 8.0 19:02:13 10° SSE 19:06:06 23° ESE 19:09:45 10° ENE visible
15 Dec 6.4 20:44:47 10° WSW 20:49:03 31° WNW 20:53:04 10° N visible
16 Dec 8.6 18:29:28 10° SE 18:32:06 15° ESE 18:34:39 10° ENE visible
16 Dec 5.8 20:10:11 10° SW 20:14:53 48° WNW 20:19:15 10° NNE visible
17 Dec 5.5 19:40:58 75° NNW 19:40:58 75° NNW 19:45:16 10° NNE visible
18 Dec 7.7 19:09:45 20° NE 19:09:45 20° NE 19:11:09 10° NNE visible
18 Dec 7.5 20:50:21 12° NW 20:50:21 12° NW 20:52:00 10° NNW visible
19 Dec 7.7 20:18:22 12° NNW 20:18:22 12° NNW 20:18:58 10° N visible
